Regional Weather Roundup
Issued by NWS

Home | Current Version | Previous Version | Graphics & Text | Print | Product List | Glossary On
Versions: 1 2 3 4 5 6 7 8 9 10 11 12 13 14 15 16 17 18 19 20 21 22 23 24 25 26 27 28 29 30 31 32 33 34 35 36 37 38 39 40 41 42 43 44 45 46 47 48 49 50
429
ASUS45 KPSR 241310
RWRAZ

ARIZONA HOURLY REGIONAL WEATHER ROUNDUP
NATIONAL WEATHER SERVICE PHOENIX AZ
600 AM MST MON JUL 24 2017

NOTE: FAIR INDICATES FEW OR NO CLOUDS BELOW 12,000 FEET WITH NO
SIGNIFICANT WEATHER AND/OR OBSTRUCTIONS TO VISIBILITY.

AZZ001>003-036-241400-
NORTHWEST ARIZONA

CITY           SKY/WX    TMP DP  RH WIND       PRES   REMARKS
KINGMAN        CLOUDY    73  64  73 SE13      30.04R
$$

AZZ004>008-015-016-018-241400-
NORTH CENTRAL ARIZONA

CITY           SKY/WX    TMP DP  RH WIND       PRES   REMARKS
GRAND CANYON   LGT RAIN  62  58  86 S6        30.28R
WILLIAMS       CLOUDY    61  57  88 CALM      30.27S
PRESCOTT       CLOUDY    66  66 100 NW3       30.16R
FLAGSTAFF      CLOUDY    58  58 100 CALM      30.30R
PAYSON         DRIZZLE   66  64  94 NW5       30.19S
PAGE           CLOUDY    77  59  53 S15G28    30.06R
$$

AZZ009>014-017-241400-
NORTHEAST ARIZONA

CITY           SKY/WX    TMP DP  RH WIND       PRES   REMARKS
WINSLOW        CLOUDY    66  64  93 CALM      30.17S
SAINT JOHNS    MOCLDY    63  62  97 SW5       30.20S
WINDOW ROCK    CLOUDY    61  55  81 N5        30.27S
SHOW LOW       CLOUDY    59  55  88 NE5       30.26R
$$

AZZ540-542>544-546-548-241400-
GREATER PHOENIX AREA

CITY           SKY/WX    TMP DP  RH WIND       PRES   REMARKS
PHOENIX        LGT RAIN  80  73  79 E6        29.89S
BUCKEYE        CLOUDY    81  70  69 CALM      29.90R
GLENDALE       CLOUDY    81  79  94 N8        29.91
LUKE AFB       MOCLDY    82  70  67 NE5       29.89R
DEER VALLEY    CLOUDY    81  71  71 VRB3      29.91R
SCOTTSDALE     CLOUDY    79  72  79 CALM      29.93R
MESA-GATEWAY   CLOUDY    77  75  94 NW5       29.93R
CHANDLER       MOCLDY    79  75  89 N6        29.91
$$

AZZ539-553-241400-
SOUTHWEST MARICOPA COUNTY AND PINAL COUNTY

CITY           SKY/WX    TMP DP  RH WIND       PRES   REMARKS
CASA GRANDE    CLOUDY    78  75  90 N5        29.93R
GILA BEND      LGT RAIN  82  73  74 CALM      29.86R
$$

AZZ503-504-507>509-241400-
SOUTHEAST ARIZONA

CITY           SKY/WX    TMP DP  RH WIND       PRES   REMARKS
TUCSON         CLOUDY    76  70  82 SE7       30.02R
DAVIS-MONTHAN  MOCLDY    73  73  97 S6        30.00R
RYAN FIELD     PTCLDY    75  72  88 E5        30.00
NOGALES        MOCLDY    67  66  97 CALM      30.09R
SIERRA VISTA   CLOUDY    67  65  93 CALM      30.14R
DOUGLAS        CLOUDY    68  67  96 E3        30.11R
SAFFORD        CLOUDY    72  69  90 SW3       30.02R
$$

AZZ532-241400-
SOUTHWEST ARIZONA

CITY           SKY/WX    TMP DP  RH WIND       PRES   REMARKS
YUMA           CLOUDY    88  67  49 SE8       29.80R
$$

CAZ041-043-047-048-061-525>527-560>570-241400-
SOUTHERN CALIFORNIA

CITY           SKY/WX    TMP DP  RH WIND       PRES   REMARKS
DOWNTOWN L.A.  PTCLDY    69  63  81 CALM      29.88R
L.A. AIRPORT   MOCLDY    69  64  84 S5        29.89R
SAN DIEGO      CLOUDY    72  64  76 CALM      29.90R
BURBANK        PTCLDY    67  61  81 CALM      29.89R
ONTARIO        PTCLDY    68  62  81 CALM      29.91R
RIVERSIDE      PTCLDY    68  63  84 CALM      29.91R
PALM SPRINGS   MOCLDY    85  57  38 N7        29.84R
EL CENTRO NAS  CLOUDY    80  74  81 CALM      29.79R
IMPERIAL       CLOUDY    84  74  71 SE3       29.77R
BLYTHE         MOCLDY    87  65  47 S6        29.82R
NEEDLES        MOCLDY    91  65  41 S7        29.85R
$$

NVZ020-UTZ003-241400-
SOUTHERN NEVADA-UTAH

CITY           SKY/WX    TMP DP  RH WIND       PRES   REMARKS
LAS VEGAS      MOCLDY    87  61  41 S6        29.89R
SALT LAKE CITY MOCLDY    77  47  34 SE9       30.01R
$$

NMZ009-TXZ055-241400-
NEW MEXICO-WEST TEXAS

CITY           SKY/WX    TMP DP  RH WIND       PRES   REMARKS
ALBUQUERQUE    CLOUDY    69  58  67 CALM      30.21R
EL PASO        PTCLDY    71  69  93 N9        30.09R
$$


........................KEY........................
SKY/WX - SKY CONDITION/WEATHER
TMP    - TEMPERATURE IN FAHRENHEIT
DP     - DEW POINT IN FAHRENHEIT
RH     - RELATIVE HUMIDITY IN PERCENT
WIND   - DIRECTION AND SPEED IN MILES PER HOUR (MPH)
VRB    - VARIABLE WIND DIRECTION
PRES   - MEAN SEA LEVEL PRESSURE IN INCHES OF MERCURY
         F - FALLING PRESSURE   R - RISING PRESSURE
         S - STEADY PRESSURE
VSB    - VISIBILITY IN MILES
HX     - HEAT INDEX IN FAHRENHEIT
WCI    - WIND CHILL INDEX IN FAHRENHEIT
TC     - TEMPERATURE IN CELSIUS WHICH IS ALSO KNOWN AS
         TEMPERATURE IN CENTIGRADE
AFB    - AIR FORCE BASE
         LUKE AFB IS LUKE AIR FORCE BASE
         DAVIS-MONTHAN IS DAVIS-MONTHAN AIR FORCE BASE
NAS    - NAVAL AIR STATION
         EL CENTRO NAS IS EL CENTRO NAVAL AIR STATION
N/A    - NOT AVAILABLE





USA.gov is the U.S. government's official web portal to all federal, state and local government web resources and services.